| time (UTC) | temp C | wind direction | speed KPH | gust KPH | rain 1hr cm | rain 24hr cm | rain mn cm | humidity % | barometer mb |
| 20260506223055 | 28 | 114 | 9.7 | 24.1 | 0.00 | 0.00 | 0.00 | 83 | 1007.4 |
| 20260506222556 | 28 | 114 | 14.5 | 24.1 | 0.00 | 0.00 | 0.00 | 81 | 1007.2 |
| 20260506222056 | 29 | 128 | 12.9 | 22.5 | 0.00 | 0.00 | 0.00 | 80 | 1007.2 |
| 20260506221557 | 30 | 117 | 8.0 | 19.3 | 0.00 | 0.00 | 0.00 | 79 | 1007.1 |
| 20260506221055 | 30 | 120 | 11.3 | 19.3 | 0.00 | 0.00 | 0.00 | 78 | 1007.1 |
| 20260506220555 | 30 | 90 | 12.9 | 17.7 | 0.00 | 0.00 | 0.00 | 77 | 1007.1 |
| 20260506220055 | 30 | 111 | 8.0 | 17.7 | 0.00 | 0.00 | 0.00 | 77 | 1007.2 |
| 20260506215555 | 31 | 109 | 8.0 | 16.1 | 0.00 | 0.00 | 0.00 | 75 | 1007.1 |
| 20260506215055 | 31 | 155 | 8.0 | 16.1 | 0.00 | 0.00 | 0.00 | 76 | 1007.1 |
| 20260506214603 | 30 | 135 | 9.7 | 16.1 | 0.00 | 0.00 | 0.00 | 77 | 1007.2 |
| 20260506214055 | 30 | 129 | 9.7 | 14.5 | 0.00 | 0.00 | 0.00 | 76 | 1007.2 |
| 20260506213554 | 30 | 132 | 4.8 | 11.3 | 0.00 | 0.00 | 0.00 | 76 | 1007.2 |
| 20260506213054 | 30 | 130 | 3.2 | 11.3 | 0.00 | 0.00 | 0.00 | 75 | 1007.2 |
| 20260506212555 | 30 | 106 | 4.8 | 12.9 | 0.00 | 0.00 | 0.00 | 74 | 1007.3 |
| 20260506212055 | 30 | 91 | 8.0 | 12.9 | 0.00 | 0.00 | 0.00 | 75 | 1007.2 |
| 20260506211600 | 30 | 134 | 6.4 | 12.9 | 0.00 | 0.00 | 0.00 | 75 | 1007.2 |
| 20260506211055 | 31 | 131 | 4.8 | 12.9 | 0.00 | 0.00 | 0.00 | 74 | 1007.3 |
| 20260506210555 | 31 | 118 | 4.8 | 12.9 | 0.00 | 0.00 | 0.00 | 74 | 1007.3 |
| 20260506210059 | 31 | 103 | 3.2 | 9.7 | 0.00 | 0.00 | 0.00 | 72 | 1007.4 |
| 20260506205555 | 31 | 0 | 3.2 | 9.7 | 0.00 | 0.00 | 0.00 | 75 | 1007.6 |
| 20260506205054 | 31 | 0 | 1.6 | 9.7 | 0.00 | 0.00 | 0.00 | 73 | 1007.5 |
| 20260506204559 | 31 | 106 | 1.6 | 9.7 | 0.00 | 0.00 | 0.00 | 74 | 1007.5 |
| 20260506204055 | 31 | 204 | 3.2 | 14.5 | 0.00 | 0.00 | 0.00 | 77 | 1007.6 |
| 20260506203555 | 30 | 113 | 4.8 | 14.5 | 0.00 | 0.00 | 0.00 | 76 | 1007.6 |
| 20260506203057 | 30 | 195 | 8.0 | 14.5 | 0.00 | 0.00 | 0.00 | 76 | 1007.7 |
| 20260506202555 | 30 | 123 | 4.8 | 19.3 | 0.00 | 0.00 | 0.00 | 77 | 1007.7 |
| 20260506202055 | 30 | 101 | 9.7 | 19.3 | 0.00 | 0.00 | 0.00 | 77 | 1007.8 |
| 20260506201600 | 30 | 160 | 8.0 | 19.3 | 0.00 | 0.00 | 0.00 | 76 | 1007.8 |
| 20260506201055 | 30 | 182 | 8.0 | 22.5 | 0.00 | 0.00 | 0.00 | 79 | 1007.8 |
| 20260506200557 | 30 | 161 | 11.3 | 22.5 | 0.00 | 0.00 | 0.00 | 78 | 1007.9 |
| 20260506200107 | 30 | 167 | 8.0 | 20.9 | 0.00 | 0.00 | 0.00 | 80 | 1007.9 |
| 20260506195556 | 30 | 149 | 11.3 | 22.5 | 0.00 | 0.00 | 0.00 | 79 | 1008.1 |
| 20260506195057 | 30 | 204 | 12.9 | 25.7 | 0.00 | 0.00 | 0.00 | 79 | 1008.1 |
| 20260506194608 | 30 | 149 | 14.5 | 25.7 | 0.00 | 0.00 | 0.00 | 78 | 1008.3 |
| 20260506194054 | 30 | 158 | 11.3 | 22.5 | 0.00 | 0.00 | 0.00 | 80 | 1008.4 |
| 20260506193558 | 30 | 196 | 9.7 | 22.5 | 0.00 | 0.00 | 0.00 | 81 | 1008.5 |
| 20260506193102 | 29 | 161 | 9.7 | 24.1 | 0.00 | 0.00 | 0.00 | 80 | 1008.6 |
| 20260506192555 | 29 | 171 | 12.9 | 24.1 | 0.00 | 0.00 | 0.00 | 80 | 1008.7 |
| 20260506192055 | 30 | 145 | 8.0 | 19.3 | 0.00 | 0.00 | 0.00 | 80 | 1008.7 |
| 20260506191609 | 29 | 189 | 9.7 | 20.9 | 0.00 | 0.00 | 0.00 | 81 | 1008.9 |
| 20260506191055 | 28 | 0 | 8.0 | 20.9 | 0.00 | 0.00 | 0.00 | 83 | 1008.9 |
| 20260506190555 | 28 | 125 | 11.3 | 20.9 | 0.00 | 0.00 | 0.00 | 83 | 1009.0 |
| 20260506190055 | 28 | 144 | 11.3 | 20.9 | 0.00 | 0.00 | 0.00 | 82 | 1008.9 |
| 20260506185555 | 28 | 167 | 9.7 | 22.5 | 0.00 | 0.00 | 0.00 | 84 | 1009.0 |
| 20260506185055 | 28 | 125 | 9.7 | 22.5 | 0.00 | 0.00 | 0.00 | 86 | 1009.0 |
| 20260506184555 | 28 | 144 | 11.3 | 20.9 | 0.00 | 0.00 | 0.00 | 84 | 1009.1 |
| 20260506184056 | 28 | 144 | 11.3 | 20.9 | 0.00 | 0.00 | 0.00 | 84 | 1009.1 |
| 20260506183555 | 28 | 116 | 11.3 | 20.9 | 0.00 | 0.00 | 0.00 | 83 | 1009.1 |
| 20260506183104 | 28 | 138 | 12.9 | 20.9 | 0.00 | 0.00 | 0.00 | 82 | 1009.2 |
| 20260506182554 | 28 | 140 | 12.9 | 20.9 | 0.00 | 0.00 | 0.00 | 85 | 1009.2 |
| 20260506182054 | 27 | 153 | 9.7 | 19.3 | 0.00 | 0.00 | 0.00 | 85 | 1009.2 |
| 20260506181601 | 27 | 163 | 11.3 | 19.3 | 0.00 | 0.00 | 0.00 | 85 | 1009.3 |
| 20260506181055 | 27 | 186 | 6.4 | 12.9 | 0.00 | 0.00 | 0.00 | 85 | 1009.4 |
| 20260506180556 | 27 | 152 | 3.2 | 12.9 | 0.00 | 0.00 | 0.00 | 86 | 1009.5 |
| 20260506180115 | 27 | 146 | 4.8 | 16.1 | 0.00 | 0.00 | 0.00 | 85 | 1009.5 |
| 20260506175558 | 27 | 169 | 4.8 | 16.1 | 0.00 | 0.00 | 0.00 | 86 | 1009.6 |
| 20260506175058 | 27 | 157 | 6.4 | 17.7 | 0.00 | 0.00 | 0.00 | 87 | 1009.6 |
| 20260506174556 | 27 | 145 | 6.4 | 22.5 | 0.00 | 0.00 | 0.00 | 86 | 1009.6 |
| 20260506174055 | 27 | 127 | 9.7 | 22.5 | 0.00 | 0.00 | 0.00 | 86 | 1009.6 |
| 20260506173555 | 27 | 150 | 8.0 | 20.9 | 0.00 | 0.00 | 0.00 | 87 | 1009.6 |
| 20260506173129 | 27 | 144 | 11.3 | 20.9 | 0.00 | 0.00 | 0.00 | 88 | 1009.6 |
| 20260506172556 | 26 | 176 | 4.8 | 17.7 | 0.00 | 0.00 | 0.00 | 89 | 1009.6 |
| 20260506172055 | 26 | 119 | 9.7 | 19.3 | 0.00 | 0.00 | 0.00 | 89 | 1009.7 |
| 20260506171554 | 26 | 150 | 8.0 | 19.3 | 0.00 | 0.00 | 0.00 | 89 | 1009.7 |
| 20260506171055 | 26 | 160 | 9.7 | 22.5 | 0.00 | 0.00 | 0.00 | 88 | 1009.7 |
| 20260506170555 | 26 | 112 | 9.7 | 22.5 | 0.00 | 0.00 | 0.00 | 88 | 1009.7 |
| 20260506170059 | 26 | 144 | 8.0 | 20.9 | 0.00 | 0.00 | 0.00 | 88 | 1009.7 |
| 20260506165555 | 26 | 157 | 4.8 | 20.9 | 0.00 | 0.00 | 0.00 | 88 | 1009.7 |
| 20260506165055 | 26 | 141 | 8.0 | 14.5 | 0.00 | 0.00 | 0.00 | 88 | 1009.7 |
| 20260506164556 | 26 | 128 | 4.8 | 12.9 | 0.00 | 0.00 | 0.00 | 88 | 1009.6 |
| 20260506164054 | 26 | 127 | 4.8 | 16.1 | 0.00 | 0.00 | 0.00 | 89 | 1009.6 |
| 20260506163554 | 26 | 117 | 6.4 | 16.1 | 0.00 | 0.00 | 0.00 | 89 | 1009.5 |
| 20260506163104 | 26 | 132 | 6.4 | 16.1 | 0.00 | 0.00 | 0.00 | 89 | 1009.5 |
| 20260506162558 | 26 | 144 | 8.0 | 14.5 | 0.00 | 0.00 | 0.00 | 89 | 1009.5 |
| 20260506162054 | 26 | 133 | 6.4 | 16.1 | 0.00 | 0.00 | 0.00 | 89 | 1009.4 |
| 20260506161557 | 26 | 109 | 8.0 | 16.1 | 0.00 | 0.00 | 0.00 | 89 | 1009.4 |
| 20260506161055 | 26 | 102 | 4.8 | 14.5 | 0.00 | 0.00 | 0.00 | 90 | 1009.3 |
| 20260506160557 | 26 | 111 | 6.4 | 14.5 | 0.00 | 0.00 | 0.00 | 90 | 1009.3 |
| 20260506160057 | 26 | 117 | 6.4 | 14.5 | 0.00 | 0.00 | 0.00 | 90 | 1009.2 |
| 20260506155555 | 26 | 116 | 4.8 | 14.5 | 0.00 | 0.00 | 0.00 | 91 | 1009.1 |
| 20260506155055 | 26 | 144 | 9.7 | 17.7 | 0.00 | 0.00 | 0.00 | 90 | 1008.9 |
| 20260506154600 | 26 | 126 | 8.0 | 17.7 | 0.00 | 0.00 | 0.00 | 90 | 1008.8 |
| 20260506154055 | 26 | 103 | 6.4 | 12.9 | 0.00 | 0.00 | 0.00 | 90 | 1008.9 |
| 20260506153559 | 26 | 79 | 4.8 | 17.7 | 0.00 | 0.00 | 0.00 | 91 | 1008.8 |
| 20260506153100 | 26 | 134 | 9.7 | 17.7 | 0.00 | 0.00 | 0.00 | 91 | 1008.7 |
| 20260506152555 | 26 | 84 | 9.7 | 17.7 | 0.00 | 0.00 | 0.00 | 91 | 1008.7 |
| 20260506152055 | 26 | 103 | 9.7 | 16.1 | 0.00 | 0.00 | 0.00 | 91 | 1008.7 |
| 20260506151600 | 26 | 129 | 9.7 | 14.5 | 0.00 | 0.00 | 0.00 | 92 | 1008.5 |
| 20260506151054 | 25 | 105 | 4.8 | 14.5 | 0.00 | 0.00 | 0.00 | 93 | 1008.5 |
| 20260506150559 | 25 | 103 | 8.0 | 14.5 | 0.00 | 0.00 | 0.00 | 92 | 1008.4 |
| 20260506150103 | 25 | 117 | 6.4 | 14.5 | 0.00 | 0.00 | 0.00 | 93 | 1008.5 |
| 20260506145555 | 25 | 102 | 6.4 | 14.5 | 0.00 | 0.00 | 0.00 | 94 | 1008.4 |
| 20260506145055 | 25 | 121 | 6.4 | 16.1 | 0.00 | 0.00 | 0.00 | 94 | 1008.4 |
| 20260506144607 | 25 | 97 | 8.0 | 16.1 | 0.00 | 0.00 | 0.00 | 94 | 1008.3 |
| 20260506144055 | 25 | 113 | 4.8 | 16.1 | 0.00 | 0.00 | 0.00 | 95 | 1008.3 |
| 20260506143555 | 25 | 99 | 6.4 | 11.3 | 0.00 | 0.00 | 0.00 | 95 | 1008.2 |
| 20260506143110 | 24 | 109 | 4.8 | 11.3 | 0.00 | 0.00 | 0.00 | 95 | 1008.2 |
| 20260506142556 | 24 | 107 | 4.8 | 11.3 | 0.00 | 0.00 | 0.00 | 95 | 1008.2 |
| 20260506142055 | 24 | 103 | 6.4 | 11.3 | 0.00 | 0.00 | 0.00 | 95 | 1008.2 |
| 20260506141553 | 24 | 107 | 4.8 | 11.3 | 0.00 | 0.00 | 0.00 | 95 | 1008.3 |
| 20260506141052 | 24 | 113 | 4.8 | 12.9 | 0.00 | 0.00 | 0.00 | 95 | 1008.3 |
| 20260506140555 | 24 | 113 | 4.8 | 12.9 | 0.00 | 0.00 | 0.00 | 96 | 1008.1 |
| 20260506140058 | 24 | 109 | 6.4 | 12.9 | 0.00 | 0.00 | 0.00 | 96 | 1008.1 |
| 20260506135554 | 24 | 105 | 6.4 | 14.5 | 0.00 | 0.00 | 0.00 | 96 | 1008.1 |
| 20260506135057 | 23 | 106 | 6.4 | 14.5 | 0.00 | 0.00 | 0.00 | 95 | 1008.1 |
| 20260506134600 | 23 | 94 | 6.4 | 12.9 | 0.00 | 0.00 | 0.00 | 95 | 1008.1 |
| 20260506134055 | 23 | 88 | 6.4 | 12.9 | 0.00 | 0.00 | 0.00 | 95 | 1008.2 |
| 20260506133555 | 23 | 90 | 3.2 | 11.3 | 0.00 | 0.00 | 0.00 | 95 | 1008.4 |
| 20260506133100 | 23 | 89 | 6.4 | 11.3 | 0.00 | 0.00 | 0.00 | 95 | 1008.4 |
| 20260506132557 | 23 | 89 | 3.2 | 9.7 | 0.00 | 0.00 | 0.00 | 95 | 1008.3 |
| 20260506132058 | 23 | 89 | 4.8 | 9.7 | 0.00 | 0.00 | 0.00 | 95 | 1008.2 |
| 20260506131557 | 23 | 89 | 4.8 | 9.7 | 0.00 | 0.00 | 0.00 | 96 | 1008.4 |
| 20260506131055 | 23 | 89 | 3.2 | 9.7 | 0.00 | 0.00 | 0.00 | 96 | 1008.3 |
| 20260506130555 | 23 | 109 | 3.2 | 11.3 | 0.00 | 0.00 | 0.00 | 96 | 1008.3 |
| 20260506130104 | 23 | 109 | 4.8 | 11.3 | 0.00 | 0.00 | 0.00 | 96 | 1008.1 |
| 20260506125555 | 23 | 96 | 4.8 | 11.3 | 0.00 | 0.00 | 0.00 | 96 | 1008.1 |
| 20260506125056 | 23 | 99 | 4.8 | 11.3 | 0.00 | 0.00 | 0.00 | 96 | 1008.1 |
| 20260506124555 | 23 | 103 | 3.2 | 9.7 | 0.00 | 0.00 | 0.00 | 96 | 1008.1 |
| 20260506124057 | 23 | 104 | 4.8 | 9.7 | 0.00 | 0.00 | 0.00 | 96 | 1008.1 |
| 20260506123555 | 23 | 101 | 4.8 | 9.7 | 0.00 | 0.00 | 0.00 | 96 | 1008.1 |
| 20260506123058 | 23 | 107 | 4.8 | 9.7 | 0.00 | 0.00 | 0.00 | 96 | 1008.1 |
| 20260506122555 | 23 | 90 | 1.6 | 6.4 | 0.00 | 0.00 | 0.00 | 96 | 1008.2 |
| 20260506122057 | 23 | 90 | 1.6 | 11.3 | 0.00 | 0.00 | 0.00 | 96 | 1008.3 |
| 20260506121559 | 23 | 90 | 4.8 | 11.3 | 0.00 | 0.00 | 0.00 | 96 | 1008.2 |
| 20260506121053 | 23 | 112 | 4.8 | 9.7 | 0.00 | 0.00 | 0.00 | 96 | 1008.0 |
| 20260506120552 | 23 | 113 | 3.2 | 8.0 | 0.00 | 0.00 | 0.00 | 96 | 1008.1 |
| 20260506120106 | 23 | 78 | 3.2 | 8.0 | 0.00 | 0.00 | 0.00 | 96 | 1008.1 |
| 20260506115600 | 23 | 91 | 3.2 | 6.4 | 0.00 | 0.00 | 0.00 | 96 | 1008.0 |
| 20260506115054 | 23 | 98 | 3.2 | 6.4 | 0.00 | 0.00 | 0.00 | 96 | 1007.9 |
| 20260506114555 | 23 | 104 | 1.6 | 9.7 | 0.00 | 0.00 | 0.00 | 96 | 1007.9 |
| 20260506114054 | 23 | 123 | 1.6 | 9.7 | 0.00 | 0.00 | 0.00 | 96 | 1007.8 |
| 20260506113557 | 23 | 119 | 1.6 | 6.4 | 0.00 | 0.00 | 0.00 | 96 | 1007.7 |
| 20260506113100 | 23 | 123 | 1.6 | 6.4 | 0.00 | 0.00 | 0.00 | 96 | 1007.7 |
| 20260506112555 | 23 | 0 | 3.2 | 6.4 | 0.00 | 0.00 | 0.00 | 96 | 1007.7 |
| 20260506112054 | 23 | 124 | 3.2 | 11.3 | 0.00 | 0.00 | 0.00 | 96 | 1007.6 |
| 20260506111601 | 23 | 117 | 3.2 | 11.3 | 0.00 | 0.00 | 0.00 | 96 | 1007.5 |
| 20260506111058 | 23 | 109 | 4.8 | 11.3 | 0.00 | 0.00 | 0.00 | 96 | 1007.5 |
| 20260506110555 | 23 | 117 | 3.2 | 9.7 | 0.00 | 0.00 | 0.00 | 96 | 1007.6 |
| 20260506105555 | 23 | 0 | 1.6 | 8.0 | 0.00 | 0.00 | 0.00 | 96 | 1007.5 |
| 20260506105058 | 23 | 128 | 3.2 | 9.7 | 0.00 | 0.00 | 0.00 | 96 | 1007.5 |
| 20260506104601 | 23 | 108 | 3.2 | 9.7 | 0.00 | 0.00 | 0.00 | 96 | 1007.5 |
| 20260506104054 | 23 | 126 | 3.2 | 9.7 | 0.00 | 0.00 | 0.00 | 96 | 1007.5 |
| 20260506103555 | 23 | 129 | 3.2 | 9.7 | 0.00 | 0.00 | 0.00 | 95 | 1007.6 |
| 20260506103055 | 23 | 134 | 3.2 | 11.3 | 0.00 | 0.00 | 0.00 | 95 | 1007.5 |
| 20260506102555 | 23 | 115 | 3.2 | 11.3 | 0.00 | 0.00 | 0.00 | 96 | 1007.6 |
| 20260506102055 | 23 | 126 | 3.2 | 8.0 | 0.00 | 0.00 | 0.00 | 95 | 1007.6 |
| 20260506101556 | 23 | 134 | 3.2 | 8.0 | 0.00 | 0.00 | 0.00 | 96 | 1007.6 |
| 20260506101056 | 23 | 135 | 1.6 | 9.7 | 0.00 | 0.00 | 0.00 | 95 | 1007.5 |
| 20260506100554 | 23 | 128 | 4.8 | 11.3 | 0.00 | 0.00 | 0.00 | 95 | 1007.5 |
| 20260506095556 | 23 | 128 | 3.2 | 9.7 | 0.00 | 0.00 | 0.00 | 95 | 1007.4 |
| 20260506095055 | 23 | 132 | 3.2 | 6.4 | 0.00 | 0.00 | 0.00 | 95 | 1007.5 |
| 20260506094611 | 23 | 116 | 3.2 | 11.3 | 0.00 | 0.00 | 0.00 | 95 | 1007.5 |
| 20260506094100 | 23 | 119 | 3.2 | 11.3 | 0.00 | 0.00 | 0.00 | 95 | 1007.4 |
| 20260506093557 | 23 | 119 | 3.2 | 8.0 | 0.00 | 0.00 | 0.00 | 95 | 1007.4 |
| 20260506093055 | 23 | 126 | 3.2 | 8.0 | 0.00 | 0.00 | 0.00 | 95 | 1007.5 |
| 20260506092555 | 23 | 115 | 3.2 | 8.0 | 0.00 | 0.00 | 0.00 | 95 | 1007.4 |
| 20260506092055 | 23 | 114 | 3.2 | 11.3 | 0.00 | 0.00 | 0.00 | 95 | 1007.4 |
| 20260506091555 | 23 | 129 | 3.2 | 11.3 | 0.00 | 0.00 | 0.00 | 95 | 1007.4 |
| 20260506091056 | 23 | 121 | 3.2 | 11.3 | 0.00 | 0.00 | 0.00 | 95 | 1007.5 |
| 20260506090554 | 23 | 142 | 3.2 | 11.3 | 0.00 | 0.00 | 0.00 | 94 | 1007.5 |
| 20260506090055 | 23 | 135 | 3.2 | 9.7 | 0.00 | 0.00 | 0.00 | 94 | 1007.4 |
| 20260506085555 | 23 | 147 | 4.8 | 9.7 | 0.00 | 0.00 | 0.00 | 94 | 1007.3 |
| 20260506085057 | 23 | 128 | 1.6 | 8.0 | 0.00 | 0.00 | 0.00 | 94 | 1007.3 |
| 20260506084557 | 23 | 128 | 3.2 | 11.3 | 0.00 | 0.00 | 0.00 | 94 | 1007.4 |
| 20260506084055 | 23 | 134 | 1.6 | 11.3 | 0.00 | 0.00 | 0.00 | 94 | 1007.4 |
| 20260506083556 | 23 | 127 | 3.2 | 11.3 | 0.00 | 0.00 | 0.00 | 94 | 1007.4 |
| 20260506083102 | 23 | 132 | 4.8 | 12.9 | 0.00 | 0.00 | 0.00 | 94 | 1007.4 |
| 20260506082555 | 23 | 150 | 4.8 | 12.9 | 0.00 | 0.00 | 0.00 | 94 | 1007.4 |
| 20260506082055 | 24 | 128 | 6.4 | 12.9 | 0.00 | 0.00 | 0.00 | 94 | 1007.4 |
| 20260506081556 | 24 | 152 | 4.8 | 14.5 | 0.00 | 0.00 | 0.00 | 93 | 1007.4 |
| 20260506081057 | 24 | 134 | 4.8 | 14.5 | 0.00 | 0.00 | 0.00 | 93 | 1007.4 |
| 20260506080555 | 24 | 128 | 6.4 | 14.5 | 0.00 | 0.00 | 0.00 | 93 | 1007.5 |
| 20260506080107 | 24 | 121 | 4.8 | 14.5 | 0.00 | 0.00 | 0.00 | 93 | 1007.5 |
| 20260506073118 | 24 | 153 | 6.4 | 14.5 | 0.00 | 0.00 | 0.00 | 92 | 1007.7 |
| 20260506072556 | 24 | 170 | 6.4 | 14.5 | 0.00 | 0.00 | 0.00 | 92 | 1007.8 |
| 20260506072055 | 24 | 142 | 8.0 | 14.5 | 0.00 | 0.00 | 0.00 | 92 | 1007.8 |
| 20260506071602 | 24 | 137 | 6.4 | 17.7 | 0.00 | 0.00 | 0.00 | 92 | 1007.9 |
| 20260506071058 | 24 | 136 | 8.0 | 19.3 | 0.00 | 0.00 | 0.00 | 92 | 1008.0 |
| 20260506070554 | 24 | 159 | 8.0 | 22.5 | 0.00 | 0.00 | 0.00 | 92 | 1008.1 |
| 20260506062055 | 24 | 142 | 4.8 | 12.9 | 0.00 | 0.00 | 0.00 | 92 | 1008.7 |
| 20260506061601 | 24 | 148 | 4.8 | 12.9 | 0.00 | 0.00 | 0.00 | 92 | 1008.7 |
| 20260506061055 | 24 | 148 | 4.8 | 12.9 | 0.00 | 0.00 | 0.00 | 92 | 1008.7 |
| 20260506060556 | 24 | 123 | 4.8 | 16.1 | 0.00 | 0.00 | 0.00 | 92 | 1008.8 |
| 20260506051052 | 25 | 168 | 11.3 | 24.1 | 0.00 | 0.00 | 0.00 | 91 | 1008.4 |
| 20260506050552 | 25 | 162 | 11.3 | 22.5 | 0.00 | 0.00 | 0.00 | 91 | 1008.3 |
| 20260506045054 | 25 | 140 | 11.3 | 25.7 | 0.00 | 0.00 | 0.00 | 91 | 1008.2 |
| 20260506044601 | 25 | 192 | 11.3 | 22.5 | 0.00 | 0.00 | 0.00 | 91 | 1008.1 |
| 20260506044051 | 25 | 154 | 11.3 | 19.3 | 0.00 | 0.00 | 0.00 | 91 | 1008.1 |
| 20260506043553 | 25 | 121 | 8.0 | 27.4 | 0.00 | 0.00 | 0.00 | 91 | 1008.1 |
| 20260506043101 | 25 | 157 | 11.3 | 27.4 | 0.00 | 0.00 | 0.00 | 91 | 1008.0 |
| 20260506042553 | 25 | 144 | 14.5 | 27.4 | 0.00 | 0.00 | 0.00 | 91 | 1007.9 |
| 20260506042053 | 25 | 126 | 9.7 | 27.4 | 0.00 | 0.00 | 0.00 | 91 | 1007.8 |
| 20260506041557 | 25 | 163 | 11.3 | 27.4 | 0.00 | 0.00 | 0.00 | 91 | 1007.9 |
| 20260506041052 | 24 | 115 | 11.3 | 22.5 | 0.00 | 0.00 | 0.00 | 91 | 1007.8 |
| 20260506040552 | 24 | 144 | 8.0 | 22.5 | 0.00 | 0.00 | 0.00 | 91 | 1007.9 |
| 20260506040058 | 24 | 161 | 8.0 | 22.5 | 0.00 | 0.00 | 0.00 | 91 | 1007.8 |
| 20260506035552 | 24 | 167 | 11.3 | 22.5 | 0.00 | 0.00 | 0.00 | 91 | 1007.8 |
| 20260506035052 | 25 | 153 | 9.7 | 22.5 | 0.00 | 0.00 | 0.00 | 91 | 1007.8 |
| 20260506034604 | 25 | 140 | 9.7 | 22.5 | 0.00 | 0.00 | 0.00 | 90 | 1007.7 |
| 20260506034051 | 25 | 133 | 11.3 | 27.4 | 0.00 | 0.00 | 0.00 | 90 | 1007.7 |
| 20260506033554 | 25 | 136 | 12.9 | 27.4 | 0.00 | 0.00 | 0.00 | 90 | 1007.7 |
| 20260506033109 | 25 | 130 | 9.7 | 25.7 | 0.00 | 0.00 | 0.00 | 90 | 1007.7 |
| 20260506032556 | 25 | 170 | 12.9 | 25.7 | 0.00 | 0.00 | 0.00 | 90 | 1007.6 |
| 20260506032056 | 25 | 140 | 11.3 | 25.7 | 0.00 | 0.00 | 0.00 | 90 | 1007.7 |
| 20260506031555 | 25 | 144 | 9.7 | 25.7 | 0.00 | 0.00 | 0.00 | 90 | 1007.6 |
| 20260506031052 | 25 | 144 | 9.7 | 24.1 | 0.00 | 0.00 | 0.00 | 90 | 1007.7 |
| 20260506030555 | 25 | 153 | 9.7 | 25.7 | 0.00 | 0.00 | 0.00 | 90 | 1007.7 |
| 20260506025553 | 24 | 135 | 12.9 | 24.1 | 0.00 | 0.00 | 0.00 | 90 | 1007.5 |
| 20260506025055 | 24 | 122 | 8.0 | 25.7 | 0.00 | 0.00 | 0.00 | 90 | 1007.4 |
| 20260506024614 | 25 | 167 | 12.9 | 25.7 | 0.00 | 0.00 | 0.00 | 90 | 1007.4 |
| 20260506024052 | 25 | 150 | 9.7 | 22.5 | 0.00 | 0.00 | 0.00 | 90 | 1007.2 |
| 20260506023552 | 25 | 128 | 12.9 | 27.4 | 0.00 | 0.00 | 0.00 | 90 | 1007.1 |
| 20260506023104 | 25 | 156 | 11.3 | 27.4 | 0.00 | 0.00 | 0.00 | 90 | 1006.9 |
| 20260506022552 | 25 | 105 | 12.9 | 27.4 | 0.00 | 0.00 | 0.00 | 90 | 1006.9 |
| 20260506022053 | 25 | 161 | 14.5 | 25.7 | 0.00 | 0.00 | 0.00 | 90 | 1006.9 |
| 20260506021559 | 25 | 142 | 9.7 | 24.1 | 0.00 | 0.00 | 0.00 | 90 | 1006.9 |
| 20260506021055 | 25 | 135 | 9.7 | 24.1 | 0.00 | 0.00 | 0.00 | 89 | 1006.9 |
| 20260506020551 | 25 | 170 | 9.7 | 22.5 | 0.00 | 0.00 | 0.00 | 89 | 1006.8 |
| 20260506020100 | 25 | 139 | 12.9 | 24.1 | 0.00 | 0.00 | 0.00 | 89 | 1006.8 |
| 20260506015554 | 25 | 115 | 9.7 | 24.1 | 0.00 | 0.00 | 0.00 | 89 | 1006.7 |
| 20260506015052 | 25 | 123 | 9.7 | 27.4 | 0.00 | 0.00 | 0.00 | 89 | 1006.7 |
| 20260506014559 | 25 | 137 | 11.3 | 27.4 | 0.00 | 0.00 | 0.00 | 89 | 1006.5 |
| 20260506014100 | 25 | 138 | 14.5 | 25.7 | 0.00 | 0.00 | 0.00 | 88 | 1006.5 |
| 20260506013554 | 25 | 211 | 11.3 | 29.0 | 0.00 | 0.00 | 0.00 | 88 | 1006.4 |
| 20260506013106 | 25 | 152 | 14.5 | 29.0 | 0.00 | 0.00 | 0.00 | 88 | 1006.3 |
| 20260506012552 | 25 | 158 | 11.3 | 30.6 | 0.00 | 0.00 | 0.00 | 88 | 1006.4 |
| 20260506012054 | 25 | 159 | 16.1 | 30.6 | 0.00 | 0.00 | 0.00 | 88 | 1006.3 |
| 20260506011623 | 25 | 165 | 14.5 | 27.4 | 0.00 | 0.00 | 0.00 | 88 | 1006.2 |
| 20260506011053 | 25 | 143 | 9.7 | 27.4 | 0.00 | 0.00 | 0.00 | 88 | 1006.0 |
| 20260506010553 | 25 | 148 | 14.5 | 25.7 | 0.00 | 0.00 | 0.00 | 87 | 1006.0 |
| 20260506010115 | 25 | 136 | 12.9 | 25.7 | 0.00 | 0.00 | 0.00 | 87 | 1006.0 |
| 20260506005551 | 25 | 147 | 12.9 | 32.2 | 0.00 | 0.00 | 0.00 | 87 | 1005.9 |
| 20260506005057 | 25 | 161 | 16.1 | 33.8 | 0.00 | 0.00 | 0.00 | 87 | 1006.0 |
| 20260506004556 | 25 | 164 | 14.5 | 33.8 | 0.00 | 0.00 | 0.00 | 87 | 1006.0 |
| 20260506004052 | 25 | 134 | 9.7 | 25.7 | 0.00 | 0.00 | 0.00 | 87 | 1005.8 |
| 20260506003552 | 25 | 128 | 12.9 | 25.7 | 0.00 | 0.00 | 0.00 | 86 | 1005.7 |
| 20260506003058 | 25 | 163 | 14.5 | 24.1 | 0.00 | 0.00 | 0.00 | 86 | 1005.8 |
| 20260506002554 | 26 | 164 | 11.3 | 27.4 | 0.00 | 0.00 | 0.00 | 85 | 1005.7 |
| 20260506002051 | 26 | 165 | 11.3 | 29.0 | 0.00 | 0.00 | 0.00 | 85 | 1005.7 |
| 20260506001601 | 26 | 160 | 11.3 | 33.8 | 0.00 | 0.00 | 0.00 | 85 | 1005.6 |
| 20260506001052 | 26 | 111 | 16.1 | 33.8 | 0.00 | 0.00 | 0.00 | 85 | 1005.6 |
| 20260506000558 | 26 | 157 | 14.5 | 35.4 | 0.00 | 0.00 | 0.00 | 85 | 1005.6 |
| 20260506000100 | 26 | 137 | 12.9 | 38.6 | 0.00 | 0.00 | 0.00 | 85 | 1005.5 |
| 20260505235556 | 26 | 182 | 17.7 | 38.6 | 0.00 | 0.00 | 0.00 | 85 | 1005.4 |
| 20260505235055 | 26 | 182 | 16.1 | 33.8 | 0.00 | 0.00 | 0.00 | 85 | 1005.5 |
| 20260505234556 | 26 | 143 | 19.3 | 35.4 | 0.00 | 0.00 | 0.00 | 85 | 1005.5 |
| 20260505234055 | 26 | 130 | 17.7 | 35.4 | 0.00 | 0.00 | 0.00 | 84 | 1005.5 |
| 20260505233553 | 26 | 150 | 17.7 | 32.2 | 0.00 | 0.00 | 0.00 | 84 | 1005.6 |
| 20260505233056 | 26 | 135 | 12.9 | 30.6 | 0.00 | 0.00 | 0.00 | 84 | 1005.5 |
| 20260505232556 | 26 | 118 | 11.3 | 32.2 | 0.00 | 0.00 | 0.00 | 84 | 1005.6 |
| 20260505232052 | 26 | 128 | 14.5 | 32.2 | 0.00 | 0.00 | 0.00 | 84 | 1005.7 |
| 20260505231557 | 26 | 151 | 17.7 | 29.0 | 0.00 | 0.00 | 0.00 | 84 | 1005.6 |
| 20260505231052 | 26 | 181 | 14.5 | 29.0 | 0.00 | 0.00 | 0.00 | 84 | 1005.7 |
| 20260505230552 | 26 | 143 | 14.5 | 32.2 | 0.00 | 0.00 | 0.00 | 84 | 1005.7 |
| 20260505230101 | 26 | 144 | 14.5 | 32.2 | 0.00 | 0.00 | 0.00 | 84 | 1005.7 |
| 20260505225552 | 26 | 132 | 17.7 | 37.0 | 0.00 | 0.00 | 0.00 | 84 | 1005.6 |
| 20260505225053 | 26 | 112 | 11.3 | 40.2 | 0.00 | 0.00 | 0.00 | 84 | 1005.7 |
| 20260505224554 | 26 | 115 | 17.7 | 40.2 | 0.00 | 0.00 | 0.00 | 83 | 1005.9 |
| 20260505224054 | 26 | 138 | 17.7 | 29.0 | 0.00 | 0.00 | 0.00 | 83 | 1005.9 |
| 20260505223551 | 26 | 153 | 11.3 | 25.7 | 0.00 | 0.00 | 0.00 | 84 | 1006.1 |